Weather History for CYMX - December, 2013

Change the Weather History Date:

Sunday, December 8, 2013

  Actual Average Record
Temperature  
Mean Temperature 13 °F -  
Max Temperature 23 °F 29 °F 35 °F (1996)
Min Temperature 3 °F 17 °F -11 °F (2000)
Degree Days  
Heating Degree Days 52    
Moisture  
Dew Point 5 °F    
Average Humidity 68    
Maximum Humidity 85    
Minimum Humidity 46    
Precipitation  
Precipitation 0.00 in - - ()
Sea Level Pressure  
Sea Level Pressure 30.55 in    
Wind  
Wind Speed 3 mph ()    
Max Wind Speed 7 mph    
Max Gust Speed -    
Averages and records for this station are not official NWS values.
T = Trace of Precipitation, MM = Missing Value Source: Averaged Metar Reports

Daily Weather History Graph

Daily Weather History Graph

Search for Another Location

Airport or City:

Trip Planner

Search our weather history database for the weather conditions in past years. The results will help you decide how hot, cold, wet, or windy it might be!

Date:

Astronomy

Dec. 08, 2013 Rise Set
Actual Time 7:24 AM EST 4:12 PM EST
Civil Twilight 6:50 AM EST 4:46 PM EST
Nautical Twilight 6:12 AM EST 5:23 PM EST
Astronomical Twilight 5:36 AM EST 5:59 PM EST
Moon 11:28 AM EST (12/8) 11:14 PM EST (12/8)
Length of Visible Light 9h 55m
Length of Day
8h 47m
Waxing Crescent, 40% of the Moon is Illuminated
Dec 8
Waxing Crescent
Dec 9
First Quarter
Dec 17
Full
Dec 25
Last Quarter
Jan 1
New

Hourly Weather History & Observations

Time (EST) Temp. Windchill Dew Point Humidity Pressure Visibility Wind Dir Wind Speed Gust Speed Precip Events Conditions
12:00 AM 15.8 °F 10.2 °F 5.0 °F 62% 30.49 in 25.0 mi WSW 3.5 mph - N/A   Clear
1:00 AM 14.0 °F 6.5 °F 5.0 °F 67% 30.50 in 25.0 mi WSW 4.6 mph - N/A   Clear
2:00 AM 14.0 °F 6.5 °F 5.0 °F 67% 30.50 in 25.0 mi West 4.6 mph - N/A   Clear
3:00 AM 10.4 °F 2.2 °F 5.0 °F 79% 30.51 in 25.0 mi SW 4.6 mph - N/A   Clear
4:00 AM 10.4 °F 4.0 °F 5.0 °F 79% 30.52 in 25.0 mi WSW 3.5 mph - N/A   Partly Cloudy
5:00 AM 6.8 °F - 3.2 °F 85% 30.53 in 25.0 mi West 2.3 mph - N/A   Clear
6:00 AM 5.0 °F - 1.4 °F 85% 30.56 in 25.0 mi Calm Calm - N/A   Partly Cloudy
7:00 AM 3.2 °F - -0.4 °F 85% 30.58 in 45.0 mi Calm Calm - N/A   Partly Cloudy
8:00 AM 3.2 °F - -2.2 °F 78% 30.59 in 45.0 mi North 2.3 mph - N/A   Mostly Cloudy
9:00 AM 5.0 °F - -0.4 °F 78% 30.58 in 45.0 mi Calm Calm - N/A   Scattered Clouds
10:00 AM 10.4 °F 4.0 °F 5.0 °F 79% 30.61 in 40.0 mi South 3.5 mph - N/A   Partly Cloudy
11:00 AM 15.8 °F - 6.8 °F 68% 30.61 in 40.0 mi Variable 2.3 mph - N/A   Partly Cloudy
12:00 PM 21.2 °F 12.6 °F 6.8 °F 54% 30.57 in 45.0 mi South 6.9 mph - N/A   Partly Cloudy
1:00 PM 23.0 °F 17.0 °F 5.0 °F 46% 30.57 in 45.0 mi WSW 4.6 mph - N/A   Scattered Clouds
2:00 PM 23.0 °F 14.7 °F 5.0 °F 46% 30.55 in 45.0 mi WSW 6.9 mph - N/A   Mostly Cloudy
3:00 PM 23.0 °F 15.8 °F 6.8 °F 50% 30.55 in 45.0 mi SW 5.8 mph - N/A   Mostly Cloudy
4:00 PM 21.2 °F 16.4 °F 6.8 °F 54% 30.55 in 45.0 mi South 3.5 mph - N/A   Mostly Cloudy
5:00 PM 17.6 °F 9.3 °F 6.8 °F 63% 30.57 in 25.0 mi SSW 5.8 mph - N/A   Overcast
6:00 PM 19.4 °F 14.3 °F 6.8 °F 58% 30.56 in 25.0 mi SSW 3.5 mph - N/A   Mostly Cloudy
7:00 PM 19.4 °F - 6.8 °F 58% 30.54 in 25.0 mi Calm Calm - N/A   Mostly Cloudy
8:00 PM 15.8 °F - 6.8 °F 68% 30.55 in 25.0 mi Calm Calm - N/A   Overcast
9:00 PM 14.0 °F - 6.8 °F 73% 30.55 in 25.0 mi NE 2.3 mph - N/A   Overcast
10:00 PM 15.8 °F 10.2 °F 8.6 °F 73% 30.53 in 25.0 mi NNE 3.5 mph - N/A   Overcast
11:00 PM 15.8 °F 8.6 °F 8.6 °F 73% 30.51 in 25.0 mi NNE 4.6 mph - N/A   Overcast